Home   Weather   Thun   Past weeks

Flag for Switzerland Past Weather in Thun, Bern, Switzerland — Yesterday and Last 2 Weeks

Now
54 °F

Passing clouds.


Feels Like: 54 °F
Forecast: 44 / 72 °F
Wind: 2 mph from North

Location: Bern / Belp

Current Time: Sep 27, 2016 at 7:21:04 AM

Latest Report: Sep 27, 2016 at 6:50 AM


Visibility: 4 mi

Pressure: 30.24 "Hg (28.29 "Hg at 557m altitude)

Humidity: 100%

Dew Point: 54 °F

Location of ThunLocation

Past Weather in Thun — Graph

°F

Thun Temperature Yesterday

Maximum temperature yesterday: 68 °F (at 1:20 PM)
Minimum temperature yesterday: 48 °F (at 6:20 AM)
Average temperature yesterday: 59 °F

High & Low Weather Summary for the Past Weeks

 TemperatureHumidityPressure
High84 °F (Sep 12, 4:50 PM)100% (Sep 12, 6:20 AM)30.30 "Hg (Sep 12, 6:20 AM)
Low43 °F (Sep 22, 2:20 AM)45% (Sep 12, 5:20 PM)29.80 "Hg (Sep 15, 2:20 AM)
Average59 °F85%30.07 "Hg
* Reported Sep 12 6:20 AM — Sep 27 6:20 AM, Thun, Weather by CustomWeather, © 2016

Note: Actual official high and low records may vary slightly from our data, if they occured in-between our weather recording intervals... More about our weather records

Advertising

Thun Weather History for the Previous 24 Hours

Scroll right to see more
 ConditionsComfort  
Time TempWeatherWind HumidityBarometerVisibility
6:20 AM
Tue, Sep 27
54 °FPartly cloudy.1 mph100%30.24 "Hg4 mi
5:50 AM54 °FPassing clouds.2 mph100%30.21 "Hg3 mi
5:20 AM54 °FPassing clouds.3 mph100%30.21 "Hg4 mi
4:50 AM55 °FPartly cloudy.1 mph100%30.21 "Hg3 mi
4:20 AM55 °FPassing clouds.3 mph94%30.21 "Hg4 mi
3:50 AM54 °FOvercast.No wind100%30.21 "Hg4 mi
3:20 AM54 °FPassing clouds.2 mph100%30.21 "Hg5 mi
2:50 AM55 °FMostly cloudy.1 mph94%30.21 "Hg4 mi
2:20 AM55 °FPartly cloudy.1 mph94%30.21 "Hg4 mi
1:50 AM55 °FPassing clouds.2 mph94%30.18 "Hg4 mi
1:20 AM55 °FPassing clouds.2 mph94%30.18 "Hg4 mi
12:50 AM55 °FPassing clouds.1 mph100%30.18 "Hg6 mi
12:20 AM55 °FPassing clouds.2 mph100%30.18 "HgN/A
11:50 PM
Mon, Sep 26
55 °FPassing clouds.1 mph94%30.21 "Hg5 mi
11:20 PM57 °FPassing clouds.2 mph94%30.21 "Hg5 mi
10:50 PM55 °FPassing clouds.2 mph94%30.21 "HgN/A
10:20 PM55 °FClear.2 mph100%30.18 "Hg10 mi
9:50 PM57 °FPassing clouds.2 mph94%30.18 "HgN/A
9:20 PM59 °FOvercast.2 mph94%30.18 "HgN/A
8:50 PM59 °FPassing clouds.3 mph88%30.18 "HgN/A
8:20 PM61 °FOvercast.2 mph83%30.15 "HgN/A
7:50 PM61 °FPassing clouds.3 mph83%30.15 "HgN/A
7:20 PM63 °FPassing clouds.2 mph77%30.15 "HgN/A
6:50 PM64 °FSunny.2 mph73%30.15 "Hg10 mi
6:20 PM66 °FPassing clouds.5 mph68%30.12 "HgN/A
5:50 PM68 °FPassing clouds.5 mph64%30.12 "HgN/A
5:20 PM68 °FScattered clouds.6 mph64%30.12 "HgN/A
4:50 PM68 °FPassing clouds.6 mph64%30.12 "HgN/A
4:20 PM66 °FScattered clouds.6 mph68%30.12 "HgN/A
3:50 PM68 °FPassing clouds.6 mph64%30.12 "HgN/A
3:20 PM68 °FScattered clouds.7 mph64%30.12 "HgN/A
2:50 PM68 °FScattered clouds.7 mph64%30.12 "HgN/A
2:20 PM66 °FScattered clouds.7 mph68%30.12 "HgN/A
1:50 PM68 °FScattered clouds.7 mph69%30.12 "HgN/A
1:20 PM68 °FScattered clouds.2 mph69%30.15 "HgN/A
12:50 PM66 °FScattered clouds.2 mph68%30.15 "HgN/A
12:20 PM64 °FScattered clouds.3 mph73%30.15 "HgN/A
11:50 AM63 °FScattered clouds.2 mph83%30.18 "HgN/A
11:20 AM61 °FScattered clouds.No wind83%30.18 "HgN/A
10:50 AM59 °FPartly sunny.No wind88%30.18 "HgN/A
10:20 AM57 °FPartly sunny.2 mph94%30.18 "HgN/A
9:50 AM57 °FPartly sunny.2 mph94%30.18 "HgN/A
9:20 AM55 °FMore clouds than sun.1 mph94%30.18 "HgN/A
8:50 AM54 °FPartly sunny.1 mph100%30.18 "HgN/A
8:20 AM52 °FBroken clouds.2 mph100%30.18 "Hg6 mi
7:50 AM50 °FFog.1 mph94%30.18 "Hg6 mi
7:20 AM48 °FFog.No wind100%30.15 "Hg6 mi
Weather by CustomWeather, © 2016

See weather overviewHow to use our weather pages